TimeEDT,TemperatureF,Dew PointF,Humidity,Sea Level PressureIn,VisibilityMPH,Wind Direction,Wind SpeedMPH,Gust SpeedMPH,PrecipitationIn,Events,Conditions,WindDirDegrees,DateUTC
12:15 AM,62.6,62.6,100,29.66,10.0,SSE,8.1,-,N/A,,Mostly Cloudy,160,2013-04-12 04:15:00
12:35 AM,62.6,62.6,100,29.67,10.0,South,5.8,-,N/A,,Mostly Cloudy,180,2013-04-12 04:35:00
12:55 AM,62.6,62.6,100,29.66,10.0,South,5.8,-,N/A,,Overcast,180,2013-04-12 04:55:00
1:15 AM,62.6,62.6,100,29.68,10.0,South,3.5,-,N/A,,Overcast,180,2013-04-12 05:15:00
1:35 AM,62.6,62.6,100,29.67,10.0,Calm,Calm,-,N/A,Rain,Light Rain,0,2013-04-12 05:35:00
1:55 AM,62.6,62.6,100,29.68,10.0,WSW,5.8,-,N/A,,Light Drizzle,240,2013-04-12 05:55:00
2:15 AM,62.6,62.6,100,29.66,10.0,South,3.5,-,N/A,,Overcast,190,2013-04-12 06:15:00
2:35 AM,62.6,62.6,100,29.66,10.0,SW,4.6,-,N/A,Rain,Rain,220,2013-04-12 06:35:00
2:55 AM,62.6,62.6,100,29.67,10.0,SW,5.8,-,N/A,Rain,Rain,220,2013-04-12 06:55:00
3:15 AM,62.6,62.6,100,29.67,10.0,Calm,Calm,-,N/A,,Overcast,0,2013-04-12 07:15:00
3:35 AM,62.6,62.6,100,29.68,10.0,Calm,Calm,-,N/A,,Overcast,0,2013-04-12 07:35:00
3:55 AM,62.6,62.6,100,29.68,10.0,Calm,Calm,-,N/A,Rain,Rain,0,2013-04-12 07:55:00
4:15 AM,62.6,60.8,94,29.70,10.0,Calm,Calm,-,N/A,Rain,Light Rain,0,2013-04-12 08:15:00
4:35 AM,60.8,60.8,100,29.71,10.0,Calm,Calm,-,N/A,,Overcast,0,2013-04-12 08:35:00
4:55 AM,60.8,60.8,100,29.72,10.0,WNW,5.8,-,N/A,,Overcast,300,2013-04-12 08:55:00
5:15 AM,60.8,59.0,94,29.73,10.0,West,5.8,-,0.01,,Overcast,270,2013-04-12 09:15:00
5:35 AM,59.0,57.2,94,29.74,10.0,West,5.8,-,0.01,,Overcast,280,2013-04-12 09:35:00
5:55 AM,59.0,55.4,88,29.75,10.0,NW,6.9,-,0.01,,Overcast,320,2013-04-12 09:55:00
6:15 AM,57.2,55.4,94,29.77,10.0,WNW,6.9,-,N/A,,Overcast,290,2013-04-12 10:15:00
6:35 AM,55.4,53.6,94,29.77,10.0,NW,12.7,-,N/A,,Overcast,320,2013-04-12 10:35:00
6:55 AM,55.4,51.8,88,29.79,10.0,WNW,8.1,-,N/A,,Overcast,300,2013-04-12 10:55:00
7:15 AM,55.4,51.8,88,29.80,10.0,NW,9.2,-,N/A,,Overcast,310,2013-04-12 11:15:00
7:35 AM,53.6,51.8,94,29.82,10.0,NW,8.1,-,N/A,,Overcast,310,2013-04-12 11:35:00
8:15 AM,53.6,50.0,88,29.84,10.0,WNW,6.9,-,N/A,,Overcast,300,2013-04-12 12:15:00
8:35 AM,53.6,50.0,88,29.85,10.0,NW,9.2,-,N/A,,Overcast,310,2013-04-12 12:35:00
8:55 AM,51.8,48.2,88,29.85,10.0,NW,9.2,-,N/A,,Overcast,320,2013-04-12 12:55:00
9:15 AM,53.6,50.0,88,29.86,10.0,North,10.4,-,N/A,,Overcast,350,2013-04-12 13:15:00
9:35 AM,53.6,46.4,77,29.86,10.0,NNW,9.2,-,N/A,,Overcast,330,2013-04-12 13:35:00
9:55 AM,53.6,44.6,72,29.87,10.0,NW,8.1,-,N/A,,Mostly Cloudy,310,2013-04-12 13:55:00
10:15 AM,53.6,44.6,72,29.87,10.0,WNW,4.6,-,N/A,,Scattered Clouds,300,2013-04-12 14:15:00
10:55 AM,53.6,42.8,67,29.90,10.0,WNW,8.1,-,N/A,,Scattered Clouds,290,2013-04-12 14:55:00
11:15 AM,55.4,42.8,63,29.90,10.0,NW,5.8,-,N/A,,Scattered Clouds,310,2013-04-12 15:15:00
11:35 AM,55.4,42.8,63,29.90,10.0,WNW,9.2,-,N/A,,Clear,300,2013-04-12 15:35:00
11:55 AM,57.2,41.0,55,29.90,10.0,NW,11.5,16.1,N/A,,Scattered Clouds,310,2013-04-12 15:55:00
12:15 PM,57.2,42.8,59,29.90,10.0,NNW,13.8,18.4,N/A,,Clear,330,2013-04-12 16:15:00
12:35 PM,59.0,42.8,55,29.91,10.0,NNW,10.4,19.6,N/A,,Scattered Clouds,330,2013-04-12 16:35:00
12:55 PM,59.0,41.0,51,29.90,10.0,West,6.9,-,N/A,,Scattered Clouds,280,2013-04-12 16:55:00
1:15 PM,59.0,39.2,48,29.90,10.0,Calm,Calm,-,N/A,,Clear,0,2013-04-12 17:15:00
1:35 PM,60.8,39.2,45,29.89,10.0,NNW,11.5,-,N/A,,Clear,340,2013-04-12 17:35:00
1:55 PM,60.8,37.4,42,29.89,10.0,WNW,9.2,16.1,N/A,,Clear,290,2013-04-12 17:55:00
2:15 PM,62.6,37.4,39,29.89,10.0,WNW,6.9,-,N/A,,Clear,290,2013-04-12 18:15:00
2:35 PM,62.6,39.2,42,29.89,10.0,WNW,11.5,-,N/A,,Clear,290,2013-04-12 18:35:00
2:55 PM,62.6,39.2,42,29.89,10.0,NW,11.5,-,N/A,,Clear,310,2013-04-12 18:55:00
3:15 PM,62.6,37.4,39,29.89,10.0,NW,5.8,9.2,N/A,,Clear,310,2013-04-12 19:15:00
3:35 PM,64.4,41.0,42,29.88,10.0,NW,10.4,19.6,N/A,,Clear,310,2013-04-12 19:35:00
3:55 PM,64.4,39.2,40,29.87,10.0,West,6.9,-,N/A,,Clear,260,2013-04-12 19:55:00
4:15 PM,64.4,37.4,37,29.87,10.0,NW,4.6,-,N/A,,Clear,310,2013-04-12 20:15:00
4:35 PM,64.4,37.4,37,29.87,10.0,WNW,4.6,-,N/A,,Clear,290,2013-04-12 20:35:00
4:55 PM,64.4,37.4,37,29.86,10.0,WSW,10.4,-,N/A,,Clear,240,2013-04-12 20:55:00
5:15 PM,64.4,37.4,37,29.87,10.0,WNW,3.5,-,N/A,,Clear,290,2013-04-12 21:15:00
5:35 PM,64.4,37.4,37,29.87,10.0,NW,6.9,-,N/A,,Clear,310,2013-04-12 21:35:00
5:55 PM,64.4,37.4,37,29.87,10.0,WNW,3.5,-,N/A,,Clear,300,2013-04-12 21:55:00
6:15 PM,64.4,37.4,37,29.87,10.0,WNW,9.2,-,N/A,,Clear,290,2013-04-12 22:15:00
6:35 PM,64.4,37.4,37,29.88,10.0,WNW,6.9,-,N/A,,Clear,290,2013-04-12 22:35:00
6:55 PM,64.4,37.4,37,29.88,10.0,NW,8.1,-,N/A,,Clear,320,2013-04-12 22:55:00
7:15 PM,64.4,37.4,37,29.88,10.0,NW,5.8,-,N/A,,Clear,310,2013-04-12 23:15:00
7:35 PM,62.6,37.4,39,29.88,10.0,NW,6.9,-,N/A,,Clear,310,2013-04-12 23:35:00
7:55 PM,62.6,37.4,39,29.89,10.0,West,3.5,-,N/A,,Clear,280,2013-04-12 23:55:00
8:15 PM,60.8,37.4,42,29.89,10.0,Calm,Calm,-,N/A,,Clear,0,2013-04-13 00:15:00
8:35 PM,59.0,39.2,48,29.90,10.0,Calm,Calm,-,N/A,,Clear,0,2013-04-13 00:35:00
8:55 PM,59.0,41.0,51,29.91,10.0,Calm,Calm,-,N/A,,Clear,0,2013-04-13 00:55:00
9:15 PM,57.2,39.2,51,29.92,10.0,Calm,Calm,-,N/A,,Clear,0,2013-04-13 01:15:00
9:35 PM,53.6,41.0,62,29.92,10.0,Calm,Calm,-,N/A,,Clear,0,2013-04-13 01:35:00
9:55 PM,51.8,44.6,76,29.93,10.0,Calm,Calm,-,N/A,,Clear,0,2013-04-13 01:55:00
10:15 PM,51.8,44.6,76,29.95,10.0,Calm,Calm,-,N/A,,Clear,0,2013-04-13 02:15:00
10:35 PM,50.0,44.6,82,29.95,10.0,Calm,Calm,-,N/A,,Clear,0,2013-04-13 02:35:00
10:55 PM,50.0,44.6,82,29.96,10.0,Calm,Calm,-,N/A,,Clear,0,2013-04-13 02:55:00
11:15 PM,50.0,44.6,82,29.97,10.0,Calm,Calm,-,N/A,,Clear,0,2013-04-13 03:15:00
11:35 PM,50.0,44.6,82,29.97,10.0,Calm,Calm,-,N/A,,Clear,0,2013-04-13 03:35:00
11:55 PM,48.2,44.6,87,29.97,10.0,Calm,Calm,-,N/A,,Clear,0,2013-04-13 03:55:00